Great Bend, KS

11:46 PM CDT on August 16, 2017 (GMT -0500)
Great Bend Municipal

Weather History for KGBD - January, 2013

Change the Weather History Date:

Wednesday, January 2, 2013

  Actual Average Record
Temperature  
Mean Temperature 19 °F -  
Max Temperature 33 °F 39 °F 48 °F (2016)
Min Temperature 5 °F 20 °F 12 °F (2015)
Degree Days  
Heating Degree Days 46    
Moisture  
Dew Point 14 °F    
Average Humidity 79    
Maximum Humidity 92    
Minimum Humidity 69    
Precipitation  
Precipitation 0.01 in - - ()
Sea Level Pressure  
Sea Level Pressure 30.18 in    
Wind  
Wind Speed 9 mph (West)    
Max Wind Speed 16 mph    
Max Gust Speed 21 mph    
Visibility 10 miles    
Events      
Averages and records for this station are not official NWS values.
T = Trace of Precipitation, MM = Missing Value Source: NWS Daily Summary

Daily Weather History Graph

Daily Weather History Graph

Search for Another Location

Airport or City:

Trip Planner

Search our weather history database for the weather conditions in past years. The results will help you decide how hot, cold, wet, or windy it might be!

Date:

Astronomy

Jan. 02, 2013 Rise Set
Actual Time 7:52 AM CST 5:26 PM CST
Civil Twilight 7:23 AM CST 5:56 PM CST
Nautical Twilight 6:50 AM CST 6:29 PM CST
Astronomical Twilight 6:18 AM CST 7:01 PM CST
Moon 10:56 PM CST (1/2) 10:39 AM CST (1/2)
Length of Visible Light 10h 33m
Length of Day
9h 34m
Waning Gibbous, 75% of the Moon is Illuminated
Jan 2
Waning Gibbous
Jan 4
Last Quarter
Jan 11
New
Jan 18
First Quarter
Jan 26
Full

Hourly Weather History & Observations

Time (CST) Temp. Windchill Dew Point Humidity Pressure Visibility Wind Dir Wind Speed Gust Speed Precip Events Conditions
12:15 AM 12.2 °F -0.2 °F 8.6 °F 85% 30.21 in 10.0 mi WSW 9.2 mph - N/A   Mostly Cloudy
12:35 AM 12.2 °F -0.2 °F 8.6 °F 85% 30.19 in 10.0 mi SW 9.2 mph - N/A   Partly Cloudy
12:55 AM 10.4 °F 0.8 °F 6.8 °F 85% 30.19 in 10.0 mi SW 5.8 mph - N/A   Clear
1:15 AM 12.2 °F -2.5 °F 10.4 °F 92% 30.18 in 10.0 mi SW 12.7 mph - N/A   Clear
1:35 AM 10.4 °F -4.1 °F 5.0 °F 79% 30.18 in 10.0 mi WSW 11.5 mph - N/A   Clear
1:55 AM 10.4 °F -3.3 °F 6.8 °F 85% 30.18 in 10.0 mi WSW 10.4 mph - N/A   Clear
2:15 AM 10.4 °F -2.4 °F 5.0 °F 79% 30.17 in 10.0 mi SW 9.2 mph - N/A   Clear
2:35 AM 8.6 °F -5.5 °F 3.2 °F 79% 30.17 in 10.0 mi WSW 10.4 mph - N/A   Clear
2:55 AM 8.6 °F -5.5 °F 3.2 °F 79% 30.16 in 10.0 mi WSW 10.4 mph - N/A   Clear
3:15 AM 10.4 °F -2.4 °F 5.0 °F 79% 30.16 in 10.0 mi West 9.2 mph - N/A   Clear
3:35 AM 12.2 °F -1.0 °F 6.8 °F 79% 30.16 in 10.0 mi WSW 10.4 mph - N/A   Clear
3:55 AM 12.2 °F -2.5 °F 6.8 °F 79% 30.16 in 10.0 mi West 12.7 mph - N/A   Clear
4:15 AM 10.4 °F -1.5 °F 6.8 °F 85% 30.15 in 10.0 mi WSW 8.1 mph - N/A   Clear
4:35 AM 10.4 °F -1.5 °F 5.0 °F 79% 30.14 in 10.0 mi WSW 8.1 mph - N/A   Clear
4:55 AM 8.6 °F 0.1 °F 3.2 °F 79% 30.13 in 10.0 mi WSW 4.6 mph - N/A   Clear
5:15 AM 8.6 °F -2.6 °F 3.2 °F 79% 30.12 in 10.0 mi West 6.9 mph - N/A   Clear
5:35 AM 10.4 °F -1.5 °F 3.2 °F 73% 30.12 in 10.0 mi West 8.1 mph - N/A   Clear
5:55 AM 8.6 °F -3.7 °F 1.4 °F 73% 30.12 in 10.0 mi West 8.1 mph - N/A   Clear
6:15 AM 8.6 °F -2.6 °F 1.4 °F 73% 30.12 in 10.0 mi West 6.9 mph - N/A   Clear
6:35 AM 6.8 °F -2.0 °F -0.4 °F 72% 30.11 in 10.0 mi WSW 4.6 mph - N/A   Clear
6:55 AM 6.8 °F -3.5 °F 1.4 °F 79% 30.11 in 10.0 mi WSW 5.8 mph - N/A   Clear
7:15 AM 8.6 °F -5.5 °F 1.4 °F 73% 30.13 in 10.0 mi WSW 10.4 mph - N/A   Clear
7:35 AM 5.0 °F -8.1 °F -2.2 °F 72% 30.12 in 10.0 mi WSW 8.1 mph - N/A   Clear
7:55 AM 5.0 °F -6.9 °F -0.4 °F 78% 30.12 in 10.0 mi WSW 6.9 mph - N/A   Clear
8:15 AM 6.8 °F -3.5 °F 1.4 °F 79% 30.13 in 10.0 mi West 5.8 mph - N/A   Clear
8:35 AM 6.8 °F -5.9 °F 1.4 °F 79% 30.14 in 10.0 mi West 8.1 mph - N/A   Clear
8:55 AM 12.2 °F -0.2 °F 8.6 °F 85% 30.15 in 10.0 mi West 9.2 mph - N/A   Clear
9:15 AM 15.8 °F 4.2 °F 10.4 °F 79% 30.15 in 10.0 mi West 9.2 mph - N/A   Clear
9:35 AM 17.6 °F 8.2 °F 12.2 °F 79% 30.16 in 10.0 mi WNW 6.9 mph - N/A   Clear
9:55 AM 19.4 °F 7.9 °F 14.0 °F 80% 30.16 in 10.0 mi WNW 10.4 mph - N/A   Clear
10:15 AM 23.0 °F 11.1 °F 17.6 °F 80% 30.17 in 10.0 mi WNW 12.7 mph - N/A   Scattered Clouds
10:35 AM 26.6 °F 15.7 °F 17.6 °F 69% 30.17 in 10.0 mi WNW 12.7 mph - N/A   Scattered Clouds
10:55 AM 28.4 °F 17.0 °F 19.4 °F 69% 30.18 in 10.0 mi NW 15.0 mph 19.6 mph N/A   Scattered Clouds
11:15 AM 28.4 °F 18.0 °F 21.2 °F 74% 30.17 in 10.0 mi NW 12.7 mph 17.3 mph N/A   Mostly Cloudy
11:35 AM 30.2 °F 19.8 °F 23.0 °F 75% 30.16 in 10.0 mi NNW 13.8 mph - N/A   Overcast
11:55 AM 32.0 °F 21.6 °F 24.8 °F 75% 30.16 in 10.0 mi NNW 15.0 mph - N/A   Overcast
12:15 PM 32.0 °F 21.2 °F 24.8 °F 75% 30.16 in 10.0 mi NNW 16.1 mph 20.7 mph N/A   Overcast
12:35 PM 32.0 °F 21.6 °F 26.6 °F 80% 30.16 in 10.0 mi NNW 15.0 mph 20.7 mph N/A   Overcast
12:55 PM 33.8 °F 23.5 °F 28.4 °F 81% 30.16 in 10.0 mi NNW 16.1 mph - N/A   Scattered Clouds
1:15 PM 33.8 °F 23.9 °F 28.4 °F 81% 30.16 in 10.0 mi NNW 15.0 mph 19.6 mph N/A   Overcast
1:35 PM 33.8 °F 23.9 °F 26.6 °F 75% 30.16 in 10.0 mi NNW 15.0 mph - N/A   Overcast
1:55 PM 33.8 °F 24.8 °F 26.6 °F 75% 30.15 in 10.0 mi NNW 12.7 mph - N/A   Overcast
2:15 PM 33.8 °F 25.8 °F 28.4 °F 81% 30.15 in 10.0 mi NNW 10.4 mph - N/A   Overcast
2:35 PM 33.8 °F 25.3 °F 28.4 °F 81% 30.14 in 10.0 mi NNW 11.5 mph - N/A   Mostly Cloudy
2:55 PM 33.8 °F 24.8 °F 28.4 °F 81% 30.15 in 10.0 mi NW 12.7 mph - 0.01 in   Mostly Cloudy
3:15 PM 33.8 °F 26.4 °F 28.4 °F 81% 30.15 in 10.0 mi NNW 9.2 mph - N/A   Mostly Cloudy
3:35 PM 33.8 °F 27.0 °F 28.4 °F 81% 30.16 in 10.0 mi NW 8.1 mph - N/A   Clear
3:55 PM 33.8 °F 27.7 °F 26.6 °F 75% 30.17 in 10.0 mi WNW 6.9 mph - N/A   Clear
4:15 PM 33.8 °F 25.8 °F 26.6 °F 75% 30.18 in 10.0 mi WNW 10.4 mph - N/A   Clear
4:35 PM 33.8 °F 27.7 °F 26.6 °F 75% 30.18 in 10.0 mi WNW 6.9 mph - N/A   Clear
5:15 PM 28.4 °F 20.4 °F 21.2 °F 74% 30.19 in 10.0 mi West 8.1 mph - N/A   Clear
5:35 PM 28.4 °F 20.4 °F 24.8 °F 86% 30.19 in 10.0 mi West 8.1 mph - N/A   Mostly Cloudy
5:55 PM 30.2 °F 21.3 °F 24.8 °F 80% 30.20 in 10.0 mi West 10.4 mph - N/A   Mostly Cloudy
6:15 PM 28.4 °F 19.7 °F 24.8 °F 86% 30.20 in 10.0 mi West 9.2 mph - N/A   Scattered Clouds
6:55 PM 24.8 °F 15.3 °F 19.4 °F 80% 30.21 in 10.0 mi West 9.2 mph - N/A   Clear
7:15 PM 21.2 °F 10.9 °F 17.6 °F 86% 30.22 in 10.0 mi West 9.2 mph - N/A   Clear
7:35 PM 21.2 °F 10.9 °F 17.6 °F 86% 30.23 in 10.0 mi West 9.2 mph - N/A   Clear
7:55 PM 19.4 °F 9.5 °F 15.8 °F 86% 30.23 in 10.0 mi West 8.1 mph - N/A   Clear
8:15 PM 19.4 °F 9.5 °F 15.8 °F 86% 30.24 in 10.0 mi West 8.1 mph - N/A   Clear
8:35 PM 17.6 °F 8.2 °F 14.0 °F 86% 30.24 in 10.0 mi West 6.9 mph - N/A   Clear
8:55 PM 17.6 °F 10.7 °F 12.2 °F 79% 30.24 in 10.0 mi West 4.6 mph - N/A   Clear
9:15 PM 15.8 °F 6.1 °F 12.2 °F 86% 30.24 in 10.0 mi WNW 6.9 mph - N/A   Clear
9:35 PM 17.6 °F 7.3 °F 12.2 °F 79% 30.25 in 10.0 mi West 8.1 mph - N/A   Clear
9:55 PM 17.6 °F 10.7 °F 12.2 °F 79% 30.26 in 10.0 mi West 4.6 mph - N/A   Clear
10:15 PM 17.6 °F 9.3 °F 12.2 °F 79% 30.26 in 10.0 mi West 5.8 mph - N/A   Clear
10:35 PM 17.6 °F 10.7 °F 12.2 °F 79% 30.27 in 10.0 mi West 4.6 mph - N/A   Clear
10:55 PM 15.8 °F 5.1 °F 10.4 °F 79% 30.27 in 10.0 mi West 8.1 mph - N/A   Clear
11:15 PM 15.8 °F 7.2 °F 10.4 °F 79% 30.28 in 10.0 mi West 5.8 mph - N/A   Clear
11:35 PM 15.8 °F 7.2 °F 10.4 °F 79% 30.29 in 10.0 mi West 5.8 mph - N/A   Clear
11:55 PM 17.6 °F 8.2 °F 12.2 °F 79% 30.29 in 10.0 mi West 6.9 mph - N/A   Clear